�������l�o���
Date,Time,MP-1(��Sv/h),MP-2(��Sv/h),MP-3(��Sv/h),MP-4(��Sv/h),MP-5(��Sv/h),MP-6(��Sv/h),MP-7(��Sv/h),MP-8(��Sv/h),����,����(m/s),���J
2020/09/04,00:00,0.674,0.954,0.616,1.176,0.846,0.386,0.679,0.635,��,3.1,��
2020/09/04,00:10,0.672,0.954,0.614,1.175,0.844,0.387,0.678,0.636,��쐼,3.8,��
2020/09/04,00:20,0.674,0.952,0.615,1.178,0.847,0.388,0.679,0.635,��쐼,4.1,��
2020/09/04,00:30,0.673,0.956,0.615,1.175,0.845,0.385,0.679,0.635,��쐼,3.2,��
2020/09/04,00:40,0.673,0.953,0.613,1.175,0.846,0.387,0.679,0.636,��,2.6,��
2020/09/04,00:50,0.673,0.954,0.614,1.175,0.847,0.388,0.679,0.636,��,2.0,��
2020/09/04,01:00,0.673,0.954,0.614,1.175,0.843,0.388,0.679,0.636,��,2.5,��
2020/09/04,01:10,0.675,0.954,0.615,1.177,0.846,0.389,0.681,0.636,��,2.6,��
2020/09/04,01:20,0.673,0.955,0.614,1.176,0.846,0.387,0.679,0.634,��,2.2,��
2020/09/04,01:30,0.675,0.956,0.616,1.179,0.846,0.387,0.680,0.636,��,1.7,��
2020/09/04,01:40,0.674,0.953,0.616,1.177,0.846,0.388,0.678,0.636,��쐼,1.5,��
2020/09/04,01:50,0.676,0.954,0.615,1.179,0.847,0.387,0.679,0.636,��쐼,2.5,��
2020/09/04,02:00,0.675,0.955,0.613,1.177,0.846,0.387,0.679,0.636,��쐼,2.3,��
2020/09/04,02:10,0.676,0.956,0.613,1.177,0.846,0.389,0.679,0.637,��,2.3,��
2020/09/04,02:20,0.675,0.951,0.613,1.177,0.847,0.388,0.680,0.637,��,0.9,��
2020/09/04,02:30,0.673,0.950,0.613,1.177,0.847,0.387,0.678,0.636,��,2.3,��
2020/09/04,02:40,0.675,0.955,0.614,1.176,0.845,0.390,0.678,0.635,��쓌,2.0,��
2020/09/04,02:50,0.674,0.953,0.615,1.177,0.847,0.387,0.678,0.637,��쐼,1.5,��
2020/09/04,03:00,0.675,0.952,0.615,1.175,0.847,0.388,0.679,0.636,��쐼,1.2,��
2020/09/04,03:10,0.674,0.951,0.614,1.178,0.848,0.386,0.680,0.638,-,CALM,��
2020/09/04,03:20,0.673,0.954,0.613,1.179,0.847,0.388,0.679,0.635,��쐼,1.2,��
2020/09/04,03:30,0.676,0.953,0.614,1.178,0.847,0.388,0.677,0.635,�쐼,0.8,��
2020/09/04,03:40,0.678,0.955,0.615,1.177,0.847,0.388,0.680,0.635,�k��,0.9,��
2020/09/04,03:50,0.675,0.954,0.613,1.178,0.846,0.388,0.679,0.636,�k�k��,1.5,��
2020/09/04,04:00,0.676,0.952,0.615,1.179,0.846,0.387,0.678,0.635,�k��,2.8,��
2020/09/04,04:10,0.675,0.955,0.616,1.178,0.847,0.387,0.680,0.637,�k��,3.0,��
2020/09/04,04:20,0.676,0.953,0.614,1.179,0.847,0.388,0.679,0.635,�k��,3.9,��
2020/09/04,04:30,0.677,0.953,0.615,1.179,0.846,0.387,0.679,0.636,�k�k��,4.2,��
2020/09/04,04:40,0.674,0.953,0.615,1.180,0.847,0.389,0.679,0.637,�k��,4.2,��
2020/09/04,04:50,0.676,0.952,0.614,1.178,0.847,0.389,0.680,0.635,�k�k��,4.4,��
2020/09/04,05:00,0.673,0.953,0.615,1.178,0.848,0.387,0.679,0.635,�k�k��,4.5,��
2020/09/04,05:10,0.676,0.954,0.614,1.175,0.847,0.388,0.680,0.635,�k�k��,4.3,��
2020/09/04,05:20,0.674,0.951,0.616,1.180,0.846,0.388,0.678,0.636,�k�k��,4.8,��
2020/09/04,05:30,0.674,0.954,0.615,1.178,0.846,0.386,0.678,0.636,�k�k��,4.4,��
2020/09/04,05:40,0.673,0.952,0.615,1.176,0.845,0.387,0.679,0.636,�k��,4.0,��
2020/09/04,05:50,0.674,0.955,0.615,1.178,0.844,0.387,0.678,0.638,�k��,4.1,��
2020/09/04,06:00,0.672,0.954,0.615,1.179,0.846,0.386,0.678,0.637,�k�k��,4.8,��
2020/09/04,06:10,0.677,0.950,0.616,1.177,0.845,0.386,0.679,0.636,�k��,4.3,��
2020/09/04,06:20,0.672,0.952,0.615,1.178,0.844,0.386,0.679,0.637,�k��,4.4,��
2020/09/04,06:30,0.673,0.952,0.613,1.176,0.845,0.387,0.679,0.636,�k��,3.4,��
2020/09/04,06:40,0.674,0.952,0.613,1.178,0.847,0.388,0.680,0.635,�k��,2.6,��
2020/09/04,06:50,0.676,0.953,0.614,1.178,0.846,0.387,0.680,0.639,�k��,4.3,��
2020/09/04,07:00,0.675,0.954,0.615,1.178,0.846,0.388,0.680,0.637,�k��,3.9,��
2020/09/04,07:10,0.673,0.952,0.615,1.179,0.847,0.386,0.681,0.637,�k��,2.8,��
2020/09/04,07:20,0.676,0.953,0.613,1.178,0.847,0.387,0.678,0.637,�k�k��,2.3,��
2020/09/04,07:30,0.676,0.951,0.615,1.178,0.847,0.388,0.681,0.636,�k�k��,2.3,��
2020/09/04,07:40,0.677,0.951,0.608,1.177,0.845,0.388,0.680,0.635,�k�k��,2.5,��
2020/09/04,07:50,0.675,0.954,0.607,1.180,0.843,0.388,0.680,0.636,�k�k��,3.0,��
2020/09/04,08:00,0.675,0.952,0.609,1.179,0.844,0.387,0.680,0.636,�k,2.3,��
2020/09/04,08:10,0.678,0.952,0.609,1.178,0.846,0.389,0.681,0.636,�k,2.5,��
2020/09/04,08:20,0.677,0.950,0.606,1.178,0.847,0.387,0.681,0.637,�k,2.9,��
2020/09/04,08:30,0.674,0.949,0.606,1.178,0.847,0.387,0.681,0.636,�k,3.3,��
2020/09/04,08:40,0.676,0.949,0.605,1.178,0.847,0.388,0.682,0.637,�k,3.1,��
2020/09/04,08:50,0.676,0.949,0.606,1.180,0.847,0.387,0.682,0.635,�k�k��,3.0,��
2020/09/04,09:00,0.675,0.948,0.606,1.179,0.846,0.388,0.681,0.635,�k�k��,2.6,��
2020/09/04,09:10,0.679,0.949,0.605,1.176,0.846,0.386,0.681,0.635,�k�k��,2.9,��
2020/09/04,09:20,0.675,0.950,0.607,1.180,0.847,0.386,0.681,0.635,�k�k��,4.3,��
2020/09/04,09:30,0.674,0.947,0.606,1.176,0.846,0.386,0.680,0.635,�k�k��,4.3,��
2020/09/04,09:40,0.676,0.950,0.609,1.179,0.845,0.387,0.680,0.634,�k�k��,4.0,��
2020/09/04,09:50,0.676,0.950,0.608,1.179,0.849,0.388,0.679,0.636,�k�k��,4.3,��
2020/09/04,10:00,0.677,0.947,0.608,1.180,0.847,0.387,0.679,0.633,�k�k��,4.2,��
2020/09/04,10:10,0.678,0.948,0.607,1.179,0.850,0.387,0.680,0.636,�k��,4.3,��
2020/09/04,10:20,0.675,0.950,0.609,1.180,0.848,0.387,0.680,0.635,�k��,4.7,��
2020/09/04,10:30,0.676,0.952,0.607,1.180,0.848,0.387,0.680,0.635,�k��,5.1,��
2020/09/04,10:40,0.676,0.949,0.610,1.181,0.847,0.385,0.679,0.634,�k��,5.7,��
2020/09/04,10:50,0.676,0.950,0.609,1.179,0.850,0.386,0.680,0.633,�k��,5.7,��
2020/09/04,11:00,0.675,0.949,0.609,1.179,0.848,0.386,0.679,0.636,�k�k��,5.9,��
2020/09/04,11:10,0.675,0.949,0.609,1.180,0.850,0.386,0.679,0.635,�k��,6.3,��
2020/09/04,11:20,0.675,0.951,0.609,1.181,0.848,0.386,0.680,0.635,�k�k��,5.1,��
2020/09/04,11:30,0.675,0.950,0.609,1.180,0.847,0.387,0.679,0.634,�k�k��,5.8,�L
2020/09/04,11:40,0.673,0.950,0.607,1.180,0.848,0.386,0.679,0.634,�k,5.2,��
2020/09/04,11:50,0.675,0.953,0.608,1.180,0.847,0.386,0.678,0.634,�k�k��,4.5,��
2020/09/04,12:00,0.675,0.955,0.613,1.180,0.850,0.387,0.679,0.635,�k,3.8,��
2020/09/04,12:10,0.675,0.956,0.614,1.179,0.850,0.385,0.677,0.635,�k�k��,4.4,��
2020/09/04,12:20,0.676,0.957,0.613,1.182,0.850,0.386,0.679,0.635,�k,6.1,��
2020/09/04,12:30,0.677,0.954,0.613,1.179,0.849,0.388,0.679,0.635,�k,5.8,��
2020/09/04,12:40,0.676,0.955,0.613,1.180,0.850,0.385,0.679,0.634,�k�k��,5.7,��
2020/09/04,12:50,0.677,0.955,0.615,1.180,0.849,0.386,0.679,0.634,�k,5.4,��
2020/09/04,13:00,0.678,0.953,0.613,1.183,0.850,0.387,0.679,0.634,�k,4.9,��
2020/09/04,13:10,0.677,0.953,0.614,1.181,0.852,0.388,0.680,0.634,�k,5.0,��
2020/09/04,13:20,0.677,0.954,0.614,1.182,0.851,0.389,0.679,0.635,�k,4.1,��
2020/09/04,13:30,0.675,0.951,0.614,1.184,0.852,0.389,0.680,0.635,�k��,4.6,��
2020/09/04,13:40,0.678,0.953,0.614,1.185,0.850,0.387,0.680,0.637,�k��,3.5,��
2020/09/04,13:50,0.677,0.952,0.614,1.181,0.850,0.387,0.680,0.636,�k�k��,3.9,��
2020/09/04,14:00,0.678,0.955,0.615,1.183,0.851,0.387,0.680,0.636,�k�k��,5.1,��
2020/09/04,14:10,0.678,0.958,0.614,1.183,0.852,0.388,0.680,0.636,�k�k��,5.1,��
2020/09/04,14:20,0.679,0.955,0.616,1.186,0.851,0.388,0.681,0.637,�k�k��,3.4,��
2020/09/04,14:30,0.678,0.957,0.615,1.183,0.852,0.388,0.681,0.636,�k�k��,4.1,��
2020/09/04,14:40,0.677,0.957,0.614,1.184,0.852,0.388,0.681,0.637,�k�k��,4.3,��
2020/09/04,14:50,0.679,0.955,0.616,1.185,0.851,0.388,0.682,0.636,�k�k��,5.1,��
2020/09/04,15:00,0.676,0.956,0.616,1.183,0.852,0.388,0.680,0.637,�k�k��,5.1,��
2020/09/04,15:10,0.677,0.958,0.617,1.183,0.852,0.388,0.681,0.637,�k�k��,4.6,��
2020/09/04,15:20,0.678,0.958,0.616,1.182,0.855,0.387,0.680,0.635,�k,5.3,��
2020/09/04,15:30,0.679,0.961,0.616,1.181,0.853,0.387,0.680,0.637,�k,5.0,��
2020/09/04,15:40,0.678,0.959,0.616,1.182,0.855,0.387,0.680,0.636,�k,3.6,��
2020/09/04,15:50,0.678,0.958,0.616,1.180,0.855,0.388,0.681,0.636,�k�k��,3.6,��
2020/09/04,16:00,0.678,0.961,0.615,1.183,0.857,0.386,0.681,0.638,�k�k��,2.8,��
2020/09/04,16:10,0.678,0.961,0.616,1.181,0.857,0.389,0.679,0.636,�k,2.0,��
2020/09/04,16:20,0.677,0.962,0.616,1.181,0.856,0.388,0.680,0.635,�k�k��,2.2,��
2020/09/04,16:30,0.678,0.964,0.617,1.182,0.855,0.388,0.681,0.635,�k�k��,2.6,��
2020/09/04,16:40,0.677,0.962,0.616,1.185,0.852,0.390,0.680,0.637,�k�k��,3.4,��
2020/09/04,16:50,0.679,0.959,0.615,1.182,0.853,0.388,0.681,0.636,�k�k��,3.3,��
2020/09/04,17:00,0.678,0.963,0.616,1.186,0.854,0.388,0.681,0.638,�k��,3.3,��
2020/09/04,17:10,0.677,0.960,0.615,1.184,0.853,0.387,0.680,0.637,�k�k��,3.1,��
2020/09/04,17:20,0.676,0.959,0.615,1.182,0.854,0.387,0.680,0.636,�k�k��,3.0,��
2020/09/04,17:30,0.677,0.960,0.614,1.184,0.853,0.388,0.679,0.636,�k�k��,2.6,��
2020/09/04,17:40,0.677,0.959,0.615,1.183,0.855,0.388,0.680,0.637,�k�k��,2.6,��
2020/09/04,17:50,0.677,0.959,0.617,1.182,0.854,0.388,0.680,0.637,�k�k��,1.4,��
2020/09/04,18:00,0.678,0.960,0.616,1.183,0.853,0.387,0.680,0.636,���k��,1.7,��
2020/09/04,18:10,0.679,0.962,0.617,1.185,0.855,0.387,0.681,0.637,��,2.0,��
2020/09/04,18:20,0.679,0.961,0.617,1.185,0.854,0.388,0.681,0.637,���k��,2.3,��
2020/09/04,18:30,0.680,0.961,0.616,1.184,0.855,0.390,0.682,0.637,���k��,0.9,��
2020/09/04,18:40,0.679,0.963,0.617,1.186,0.855,0.389,0.680,0.637,�k��,3.0,��
2020/09/04,18:50,0.680,0.963,0.616,1.185,0.855,0.390,0.681,0.638,�k��,3.7,��
2020/09/04,19:00,0.681,0.963,0.617,1.185,0.856,0.390,0.681,0.639,�k�k��,3.7,��
2020/09/04,19:10,0.680,0.963,0.617,1.186,0.855,0.390,0.679,0.635,�k�k��,3.4,��
2020/09/04,19:20,0.680,0.962,0.619,1.187,0.857,0.390,0.680,0.636,�k�k��,3.0,��
2020/09/04,19:30,0.681,0.962,0.619,1.185,0.856,0.390,0.682,0.637,�k�k��,2.9,��
2020/09/04,19:40,0.679,0.962,0.618,1.184,0.856,0.390,0.681,0.637,�k�k��,2.6,��
2020/09/04,19:50,0.678,0.964,0.617,1.184,0.857,0.389,0.682,0.637,�k�k��,2.8,��
2020/09/04,20:00,0.679,0.962,0.618,1.186,0.856,0.390,0.681,0.638,�k,2.8,��
2020/09/04,20:10,0.678,0.964,0.616,1.186,0.854,0.390,0.679,0.636,�k,3.4,��
2020/09/04,20:20,0.677,0.963,0.619,1.186,0.855,0.389,0.681,0.638,�k�k��,3.2,��
2020/09/04,20:30,0.680,0.965,0.618,1.185,0.854,0.390,0.681,0.636,�k,3.9,��
2020/09/04,20:40,0.678,0.963,0.617,1.186,0.853,0.390,0.680,0.637,�k�k��,3.4,��
2020/09/04,20:50,0.677,0.962,0.617,1.182,0.855,0.390,0.681,0.636,�k�k��,4.2,��
2020/09/04,21:00,0.677,0.963,0.616,1.186,0.854,0.389,0.679,0.639,�k�k��,4.3,��
2020/09/04,21:10,0.677,0.964,0.616,1.186,0.854,0.388,0.679,0.638,�k�k��,4.2,��
2020/09/04,21:20,0.676,0.963,0.617,1.183,0.856,0.387,0.682,0.638,�k�k��,4.4,��
2020/09/04,21:30,0.677,0.963,0.617,1.183,0.855,0.386,0.682,0.636,�k,4.7,��
2020/09/04,21:40,0.677,0.962,0.615,1.188,0.854,0.388,0.682,0.636,�k,4.9,��
2020/09/04,21:50,0.678,0.964,0.616,1.183,0.855,0.388,0.683,0.637,�k,4.8,��
2020/09/04,22:00,0.675,0.962,0.615,1.186,0.854,0.387,0.682,0.637,�k,5.0,��
2020/09/04,22:10,0.676,0.962,0.616,1.186,0.854,0.387,0.681,0.638,�k,4.1,��
2020/09/04,22:20,0.678,0.963,0.617,1.185,0.856,0.386,0.681,0.637,�k�k��,4.4,��
2020/09/04,22:30,0.678,0.964,0.617,1.184,0.855,0.387,0.679,0.639,�k�k��,4.1,��
2020/09/04,22:40,0.677,0.962,0.617,1.185,0.855,0.387,0.682,0.637,�k�k��,3.7,��
2020/09/04,22:50,0.676,0.964,0.617,1.185,0.857,0.388,0.679,0.638,�k,3.8,��
2020/09/04,23:00,0.677,0.962,0.617,1.187,0.856,0.388,0.681,0.638,�k,3.1,��
2020/09/04,23:10,0.676,0.965,0.616,1.184,0.855,0.388,0.681,0.637,�k��,3.6,��
2020/09/04,23:20,0.675,0.961,0.618,1.186,0.857,0.387,0.682,0.638,�k��,4.0,��
2020/09/04,23:30,0.677,0.963,0.618,1.186,0.856,0.387,0.682,0.637,�k��,3.6,��
2020/09/04,23:40,0.678,0.962,0.616,1.186,0.855,0.388,0.681,0.637,�k��,3.4,��
2020/09/04,23:50,0.678,0.963,0.616,1.185,0.857,0.388,0.683,0.637,�k��,3.3,��
